Weather History for Craig, CO

Change the Weather History Date:

Saturday, January 26, 2013

  Actual Average Record
Temperature  
Mean Temperature 37 °F 17 °F  
Max Temperature 41 °F 30 °F 43 °F (2002)
Min Temperature 32 °F 3 °F -8 °F (2004)
Degree Days  
Heating Degree Days 28 48  
Month to date heating degree days 1593 1287  
Since 1 July heating degree days 4764 4843  
Cooling Degree Days 0 0  
Month to date cooling degree days 0 0  
Year to date cooling degree days 0 0  
Moisture  
Dew Point 31 °F    
Average Humidity 83    
Maximum Humidity 96    
Minimum Humidity 70    
Precipitation  
Precipitation 0.15 in 0.03 in 0.21 in (2000)
Month to date precipitation 0.41 0.72  
Year to date precipitation 0.41 0.72  
Sea Level Pressure  
Sea Level Pressure 29.95 in    
Wind  
Wind Speed 1 mph (East)    
Max Wind Speed 9 mph    
Max Gust Speed 10 mph    
Visibility 5 miles    
Events Rain , Snow    
T = Trace of Precipitation, MM = Missing Value Source: NWS Daily Summary

Daily Weather History Graph

Daily Weather History Graph

Search for Another Location

Airport:

Trip Planner

Search our weather history database for the weather conditions in past years. The results will help you decide how hot, cold, wet, or windy it might be!

Date:

Astronomy

Jan. 26, 2013 Rise Set
Actual Time 7:24 AM MST 5:21 PM MST
Civil Twilight 6:55 AM MST 5:50 PM MST
Nautical Twilight 6:22 AM MST 6:23 PM MST
Astronomical Twilight 5:50 AM MST 6:55 PM MST
Moon 5:19 PM MST (1/26) 6:44 AM MST (1/26)
Length of Visible Light 10h 55m
Length of Day
9h 56m
Full, 100% of the Moon is Illuminated
Jan 26
Full
Jan 26
Full
Feb 3
Last Quarter
Feb 10
New
Feb 17
First Quarter

Hourly Weather History & Observations

Time (MST) Temp. Windchill Dew Point Humidity Pressure Visibility Wind Dir Wind Speed Gust Speed Precip Events Conditions
12:28 AM 33.8 °F - 30.2 °F 87% 30.16 in 5.0 mi Calm Calm - N/A   Overcast
12:53 AM 33.1 °F - 30.0 °F 89% 30.21 in 5.0 mi Calm Calm - N/A   Overcast
1:53 AM 33.1 °F - 30.0 °F 89% 30.19 in 5.0 mi Calm Calm - N/A   Overcast
2:53 AM 33.1 °F - 30.9 °F 92% 30.19 in 4.0 mi Calm Calm - N/A   Overcast
3:53 AM 34.0 °F - 30.9 °F 89% 30.16 in 8.0 mi Calm Calm - N/A   Overcast
4:53 AM 33.1 °F - 30.0 °F 89% 30.15 in 5.0 mi Calm Calm - N/A   Overcast
5:53 AM 33.1 °F - 30.9 °F 92% 30.15 in 6.0 mi Calm Calm - N/A   Overcast
6:53 AM 33.1 °F - 30.9 °F 92% 30.14 in 7.0 mi Calm Calm - N/A   Overcast
7:53 AM 32.0 °F - 30.0 °F 92% 30.14 in 3.0 mi Calm Calm - N/A   Overcast
8:03 AM 33.8 °F - 30.2 °F 87% 30.08 in 2.5 mi Calm Calm - N/A   Overcast
8:31 AM 33.8 °F - 30.2 °F 87% 30.09 in 5.0 mi Calm Calm - N/A   Overcast
8:53 AM 34.0 °F - 30.9 °F 89% 30.12 in 7.0 mi Calm Calm - N/A   Overcast
9:53 AM 34.0 °F - 30.9 °F 89% 30.11 in 9.0 mi Calm Calm - N/A   Overcast
10:53 AM 39.0 °F 35.7 °F 30.9 °F 73% 30.07 in 10.0 mi East 4.6 mph - N/A   Overcast
11:53 AM 39.9 °F - 32.0 °F 73% 30.02 in 10.0 mi Calm Calm - N/A   Overcast
12:53 PM 41.0 °F 39.0 °F 32.0 °F 70% 29.98 in 10.0 mi NE 3.5 mph - N/A   Mostly Cloudy
1:53 PM 37.0 °F - 32.0 °F 82% 29.96 in 10.0 mi Calm Calm - N/A   Scattered Clouds
2:53 PM 37.0 °F - 32.0 °F 82% 29.94 in 10.0 mi Calm Calm - N/A   Overcast
3:53 PM 36.0 °F - 30.9 °F 82% 29.92 in 10.0 mi Calm Calm - N/A   Mostly Cloudy
4:53 PM 35.1 °F 32.2 °F 30.9 °F 85% 29.90 in 10.0 mi SSW 3.5 mph - N/A   Overcast
5:53 PM 36.0 °F - 30.9 °F 82% 29.88 in 9.0 mi Calm Calm - 0.00 in Rain Light Rain
6:12 PM 35.6 °F - 30.2 °F 81% 29.86 in 7.0 mi Calm Calm - 0.01 in Rain Light Rain
6:53 PM 34.0 °F - 30.9 °F 89% 29.89 in 4.0 mi Calm Calm - 0.03 in Rain Light Rain
7:32 PM 33.8 °F - 32.0 °F 93% 29.85 in 4.0 mi Calm Calm - 0.02 in Rain Light Rain
7:44 PM 33.8 °F - 32.0 °F 93% 29.84 in 4.0 mi Calm Calm - 0.02 in Rain Light Rain
7:53 PM 34.0 °F - 32.0 °F 92% 29.88 in 4.0 mi Calm Calm - 0.03 in Rain Light Rain
8:33 PM 33.8 °F - 32.0 °F 93% 29.83 in 2.0 mi Calm Calm - 0.01 in Rain Light Rain
8:40 PM 33.8 °F - 32.0 °F 93% 29.82 in 1.5 mi Calm Calm - 0.02 in Rain Light Rain
8:49 PM 33.8 °F - 32.0 °F 93% 29.82 in 1.5 mi Calm Calm - 0.02 in Rain Light Rain
8:53 PM 33.1 °F - 32.0 °F 96% 29.85 in 1.8 mi Calm Calm - 0.02 in Rain Light Rain
9:02 PM 33.8 °F - 32.0 °F 93% 29.82 in 2.5 mi Calm Calm - 0.01 in Rain Light Rain
9:16 PM 33.8 °F - 30.2 °F 87% 29.82 in 1.2 mi Calm Calm - 0.01 in Rain Light Rain
9:21 PM 33.8 °F - 30.2 °F 87% 29.82 in 0.8 mi Calm Calm - 0.01 in Rain Light Rain
9:32 PM 33.8 °F - 32.0 °F 93% 29.81 in 1.2 mi Calm Calm - 0.02 in Rain Light Rain
9:44 PM 33.8 °F - 32.0 °F 93% 29.81 in 2.5 mi Calm Calm - 0.02 in Rain Light Rain
9:53 PM 33.1 °F - 32.0 °F 96% 29.85 in 3.0 mi Calm Calm - 0.02 in Rain Light Rain
10:02 PM 33.8 °F - 30.2 °F 87% 29.81 in 4.0 mi Calm Calm - 0.01 in Rain Light Rain
10:42 PM 33.8 °F - 30.2 °F 87% 29.81 in 2.5 mi Calm Calm - 0.02 in Snow Light Snow
10:53 PM 33.1 °F - 30.9 °F 92% 29.83 in 2.5 mi Calm Calm - 0.02 in Snow Light Snow
11:00 PM 33.8 °F - 30.2 °F 87% 29.81 in 2.0 mi Calm Calm - 0.01 in Snow Light Snow
11:08 PM 33.8 °F - 30.2 °F 87% 29.81 in 1.8 mi Calm Calm - 0.01 in Snow Light Snow
11:24 PM 33.8 °F - 30.2 °F 87% 29.81 in 3.0 mi Calm Calm - 0.02 in Snow Light Snow
11:38 PM 33.8 °F - 30.2 °F 87% 29.81 in 2.0 mi Calm Calm - 0.02 in Snow Light Snow
11:45 PM 33.8 °F - 30.2 °F 87% 29.81 in 2.5 mi Calm Calm - 0.02 in Snow Light Snow
11:53 PM 33.1 °F - 30.9 °F 92% 29.82 in 1.5 mi Calm Calm - 0.03 in Snow Light Snow